Location: Huntsville
(41.2590°N, 111.7678°W)
Time: 20:28:13
(UTC+00:00)

Explorer 7 - Pass Details

Date: 16 June 2021
Orbit: 484 x 676 km, 50.3° (Epoch: 30 July)

Event Time Altitude Azimuth Distance (km) Brightness Sun altitude
Rises 11:00:57 0° 303° (WNW) 2,910 10.4 -8.7°
Reaches altitude 10° 11:03:21 10° 307° (NW) 1,970 9.5 -8.4°
Maximum altitude 11:07:49 61° 28° (NNE) 664 7.6 -7.7°
Drops below altitude 10° 11:11:59 10° 109° (ESE) 1,839 9.9 -7.1°
Sets 11:14:10 0° 113° (ESE) 2,698 10.7 -6.8°
